Location: Larkspur
(54.4391°N, 113.7691°W)
Time: 20:22:56
(UTC+00:00)

METEOR M2 - Pass Details

Date: 05 December 2023
Orbit: 819 x 826 km, 98.4° (Epoch: 04 March)

Event Time Altitude Azimuth Distance (km) Brightness Sun altitude
Rises 11:42:32 0° 29° (NNE) 3,374 ? -32.9°
Reaches altitude 10° 11:46:55 10° 62° (ENE) 2,431 ? -32.3°
Maximum altitude 11:48:33 11° 80° (E) 2,334 ? -32.0°
Drops below altitude 10° 11:50:12 10° 99° (E) 2,424 ? -31.8°
Sets 11:54:31 0° 132° (SE) 3,348 ? -31.2°
